ANA251 RJTT-RJCC

Flight info

Callsign ANA251
Flight time N/A
Altitude 37000
Route BRUCE AGRIS Y11 SAMBO Y119 OHMAR Y13 SIRAO Y139 NAVER
Aircraft B77L/H-SDE1E2E3FGHIJ2J3J4J5M1RWXY/LB1D1

Departure

Time 2026-05-07 06:04
Airport Tokyo Haneda International Airport (RJTT)

Arrival

Time N/A
Airport New Chitose Airport (RJCC)
Time Latitude Longitude Altitude Speed Heading
2026-05-07 05:35 35.54304 139.77487 27 ft 0 kts 150°
2026-05-07 05:40 35.54307 139.77485 27 ft 2 kts 150°
2026-05-07 05:41 35.54323 139.77474 26 ft 3 kts 149°
2026-05-07 05:41 35.54341 139.77461 24 ft 3 kts 145°
2026-05-07 05:41 35.54356 139.77446 25 ft 3 kts 135°
2026-05-07 05:41 35.54368 139.77430 25 ft 3 kts 113°
2026-05-07 05:42 35.54373 139.77415 27 ft 3 kts 75°
2026-05-07 05:42 35.54372 139.77410 27 ft 1 kts 62°
2026-05-07 05:42 35.54380 139.77428 27 ft 3 kts 58°
2026-05-07 05:42 35.54391 139.77448 25 ft 3 kts 57°
2026-05-07 05:43 35.54402 139.77470 27 ft 3 kts 58°
2026-05-07 05:43 35.54412 139.77491 27 ft 3 kts 61°
2026-05-07 05:43 35.54421 139.77512 27 ft 2 kts 64°
2026-05-07 05:43 35.54423 139.77518 27 ft 0 kts 65°
2026-05-07 05:53 35.54441 139.77561 27 ft 12 kts 62°
2026-05-07 05:53 35.54496 139.77668 27 ft 15 kts 43°
2026-05-07 05:53 35.54592 139.77651 27 ft 15 kts 329°
2026-05-07 05:53 35.54600 139.77645 27 ft 0 kts 329°
2026-05-07 05:58 35.54601 139.77645 27 ft 2 kts 329°
2026-05-07 05:58 35.54675 139.77591 27 ft 17 kts 329°
2026-05-07 05:58 35.54775 139.77519 27 ft 17 kts 330°
2026-05-07 05:58 35.54876 139.77447 27 ft 17 kts 330°
2026-05-07 05:59 35.54978 139.77374 27 ft 17 kts 330°
2026-05-07 05:59 35.55079 139.77303 27 ft 17 kts 330°
2026-05-07 05:59 35.55182 139.77232 27 ft 17 kts 330°
2026-05-07 05:59 35.55283 139.77161 27 ft 17 kts 330°
2026-05-07 06:00 35.55384 139.77087 27 ft 17 kts 329°
2026-05-07 06:00 35.55486 139.77015 27 ft 17 kts 330°
2026-05-07 06:00 35.55587 139.76945 27 ft 17 kts 330°
2026-05-07 06:00 35.55666 139.76842 27 ft 17 kts 301°
2026-05-07 06:01 35.55733 139.76723 27 ft 17 kts 306°
2026-05-07 06:01 35.55832 139.76672 27 ft 17 kts 26°
2026-05-07 06:01 35.55932 139.76756 27 ft 17 kts 36°
2026-05-07 06:01 35.56006 139.76864 27 ft 17 kts 89°
2026-05-07 06:02 35.55922 139.76964 27 ft 11 kts 149°
2026-05-07 06:02 35.55920 139.76966 27 ft 0 kts 149°
2026-05-07 06:02 35.55918 139.76967 27 ft 0 kts 149°
2026-05-07 06:03 35.55917 139.76967 27 ft 1 kts 149°
2026-05-07 06:03 35.55752 139.77084 27 ft 65 kts 151°
2026-05-07 06:03 35.55156 139.77502 27 ft 132 kts 150°
2026-05-07 06:03 35.54206 139.78168 107 ft 173 kts 150°
2026-05-07 06:04 35.53154 139.78945 606 ft 180 kts 151°
2026-05-07 06:04 35.52057 139.79739 1208 ft 186 kts 153°
2026-05-07 06:04 35.50906 139.80551 1828 ft 192 kts 154°
2026-05-07 06:04 35.49739 139.81360 2402 ft 200 kts 155°
2026-05-07 06:05 35.48447 139.82252 2687 ft 226 kts 154°
2026-05-07 06:05 35.47016 139.83240 3110 ft 247 kts 153°
2026-05-07 06:05 35.45513 139.84338 3758 ft 257 kts 146°
2026-05-07 06:05 35.44372 139.86078 4341 ft 276 kts 113°
2026-05-07 06:06 35.44205 139.88456 5060 ft 291 kts 78°
2026-05-07 06:06 35.45051 139.90729 5751 ft 292 kts 59°
2026-05-07 06:06 35.46105 139.92855 6682 ft 290 kts 58°
2026-05-07 06:06 35.47162 139.94968 7373 ft 298 kts 58°
2026-05-07 06:07 35.48299 139.97157 7953 ft 307 kts 50°
2026-05-07 06:07 35.50011 139.98703 8544 ft 308 kts 15°
2026-05-07 06:07 35.52099 139.99064 9337 ft 301 kts 356°
2026-05-07 06:07 35.54157 139.98792 9903 ft 302 kts 339°
2026-05-07 06:08 35.56120 139.97904 10570 ft 297 kts 331°
2026-05-07 06:08 35.58056 139.96950 11105 ft 313 kts 335°
2026-05-07 06:08 35.60233 139.96108 11265 ft 341 kts 342°
2026-05-07 06:08 35.62745 139.95854 11338 ft 380 kts
2026-05-07 06:09 35.65393 139.96245 11705 ft 395 kts
2026-05-07 06:09 35.68181 139.96538 12227 ft 402 kts 360°
2026-05-07 06:09 35.70956 139.96746 13425 ft 398 kts 359°
2026-05-07 06:09 35.73743 139.96728 13911 ft 405 kts 347°
2026-05-07 06:10 35.76479 139.95857 14334 ft 408 kts 333°
2026-05-07 06:10 35.79083 139.94558 14922 ft 406 kts 332°
2026-05-07 06:10 35.81706 139.93191 14943 ft 406 kts 332°
2026-05-07 06:10 35.84300 139.91869 15067 ft 408 kts 333°
2026-05-07 06:11 35.86972 139.90571 15864 ft 412 kts 334°
2026-05-07 06:11 35.89657 139.89301 16762 ft 414 kts 334°
2026-05-07 06:11 35.92339 139.88042 17591 ft 417 kts 334°
2026-05-07 06:11 35.95083 139.86752 18323 ft 422 kts 335°
2026-05-07 06:12 35.97897 139.85760 18795 ft 432 kts 349°
2026-05-07 06:12 36.00949 139.85900 19349 ft 447 kts
2026-05-07 06:12 36.03915 139.87140 19989 ft 450 kts 19°
2026-05-07 06:12 36.06813 139.88580 20567 ft 456 kts 19°
2026-05-07 06:13 36.09794 139.90056 21212 ft 460 kts 19°
2026-05-07 06:13 36.12757 139.91485 21870 ft 463 kts 18°
2026-05-07 06:13 36.15787 139.92912 22532 ft 466 kts 18°
2026-05-07 06:13 36.18845 139.94317 23129 ft 467 kts 15°
2026-05-07 06:14 36.22011 139.95093 23571 ft 465 kts 358°
2026-05-07 06:14 36.25216 139.94984 23967 ft 466 kts 353°
2026-05-07 06:14 36.28455 139.94765 24425 ft 471 kts 353°
2026-05-07 06:14 36.31755 139.94578 24938 ft 474 kts 354°
2026-05-07 06:15 36.35085 139.94443 25451 ft 478 kts 355°
2026-05-07 06:15 36.38438 139.94345 25934 ft 482 kts 355°
2026-05-07 06:15 36.41762 139.94256 26398 ft 486 kts 355°
2026-05-07 06:15 36.45154 139.94165 26852 ft 491 kts 355°
2026-05-07 06:16 36.48593 139.94072 27314 ft 495 kts 355°
2026-05-07 06:16 36.52071 139.93974 27776 ft 499 kts 355°
2026-05-07 06:16 36.55557 139.93874 28222 ft 503 kts 355°